Weather reports worldwide

Advertisment
Cordoba Aeropuerto (AWS), Spain (8410): temperature & dewpoint: 20.09.2018 17:00:00 - 26.09.2018 17:00:00 (CEST)Cordoba Aeropuerto (AWS), Spain (8410): wind speed: 20.09.2018 17:00:00 - 26.09.2018 17:00:00 (CEST)Cordoba Aeropuerto (AWS), Spain (8410): wind direction: 20.09.2018 17:00:00 - 26.09.2018 17:00:00 (CEST)Cordoba Aeropuerto (AWS), Spain (8410): reduced air pressure: 20.09.2018 17:00:00 - 26.09.2018 17:00:00 (CEST)Cordoba Aeropuerto (AWS), Spain (8410): visibility: 20.09.2018 17:00:00 - 26.09.2018 17:00:00 (CEST)
Date & Time tt [°C] td [°C] ff [km/h] ff [kn] dd ppp [hPa] vv [km]
26.09.2018 17:00:00 32,7 15,2 5 3 N 1020,7 50
26.09.2018 16:00:00 32,9 15,4 9 5 N 1021,2 -
26.09.2018 15:00:00 32,3 16,2 5 3 WSW 1022,3 -
26.09.2018 14:00:00 30,8 16,5 4 2 SSW 1023,1 50
26.09.2018 13:00:00 30,7 17,0 9 5 ESE 1023,6 -
26.09.2018 12:00:00 29,5 17,3 9 5 E 1023,8 -
26.09.2018 11:00:00 27,0 18,0 8 4 E 1024,0 40
26.09.2018 10:00:00 24,7 17,7 8 4 E 1023,6 -
26.09.2018 09:00:00 21,8 17,4 0 0 N 1023,0 -
26.09.2018 08:00:00 - - - - - - -
26.09.2018 07:00:00 - - - - - - -
26.09.2018 06:00:00 - - - - - - -
26.09.2018 05:00:00 - - - - - - -
26.09.2018 04:00:00 - - - - - - -
26.09.2018 03:00:00 - - - - - - -
26.09.2018 02:00:00 23,8 15,6 4 2 W 1021,2 -
26.09.2018 01:00:00 25,4 15,4 13 7 WSW 1020,8 -
26.09.2018 00:00:00 24,2 14,9 13 7 W 1020,1 -
25.09.2018 23:00:00 25,3 14,1 9 5 W 1019,5 -
25.09.2018 22:00:00 28,4 13,1 11 6 SSW 1018,6 -
25.09.2018 21:00:00 30,1 11,6 4 2 W 1017,8 -
25.09.2018 20:00:00 32,9 9,7 11 6 S 1016,9 50
25.09.2018 19:00:00 35,6 8,4 13 7 SSW 1016,6 -
25.09.2018 18:00:00 36,8 7,8 13 7 S 1016,9 -
25.09.2018 17:00:00 37,2 8,1 15 8 SSW 1017,1 40
25.09.2018 16:00:00 36,8 7,8 15 8 S 1017,6 -
25.09.2018 15:00:00 36,2 9,7 11 6 SW 1018,2 -
25.09.2018 14:00:00 35,2 10,1 4 2 SE 1019,3 30
25.09.2018 13:00:00 32,5 9,1 5 3 ENE 1020,0 -
25.09.2018 12:00:00 30,1 8,5 4 2 NE 1020,4 -
25.09.2018 11:00:00 27,6 9,4 8 4 E 1020,6 30
25.09.2018 10:00:00 24,6 10,7 8 4 E 1020,3 -
25.09.2018 09:00:00 20,5 12,4 0 0 N 1020,0 -
25.09.2018 08:00:00 18,9 12,4 2 1 N 1019,5 25
25.09.2018 07:00:00 19,2 12,0 2 1 NE 1019,0 -
25.09.2018 06:00:00 20,3 11,2 4 2 E 1018,7 -
25.09.2018 05:00:00 20,2 11,7 4 2 NNE 1018,8 -
25.09.2018 04:00:00 21,2 13,1 4 2 SW 1018,7 -
25.09.2018 03:00:00 22,5 11,6 0 0 N 1018,9 -
25.09.2018 02:00:00 24,1 9,5 2 1 NW 1018,9 -
25.09.2018 01:00:00 24,0 9,9 0 0 N 1019,0 -
25.09.2018 00:00:00 25,9 9,7 11 6 W 1018,8 -
24.09.2018 23:00:00 27,6 8,5 8 4 W 1018,1 -
24.09.2018 22:00:00 30,7 7,2 11 6 WNW 1017,2 -
24.09.2018 21:00:00 30,3 10,3 8 4 WNW 1016,3 -
24.09.2018 20:00:00 34,9 10,0 2 1 WSW 1015,7 50
24.09.2018 19:00:00 37,7 5,6 0 0 N 1015,7 -
24.09.2018 18:00:00 38,7 6,4 4 2 WSW 1015,8 -
24.09.2018 17:00:00 38,4 7,2 8 4 WSW 1016,3 40
24.09.2018 16:00:00 37,7 7,6 4 2 WNW 1017,2 -
24.09.2018 15:00:00 35,4 7,5 8 4 NNE 1018,1 -
24.09.2018 14:00:00 35,3 8,2 4 2 SE 1019,3 40
24.09.2018 13:00:00 32,5 8,7 4 2 NE 1020,2 -
24.09.2018 12:00:00 29,9 9,4 13 7 NE 1020,8 -
24.09.2018 11:00:00 27,0 10,2 11 6 E 1021,0 40
24.09.2018 10:00:00 24,3 11,3 8 4 E 1020,7 -
24.09.2018 09:00:00 20,4 11,3 0 0 N 1020,5 -
24.09.2018 08:00:00 18,2 12,9 5 3 SW 1020,1 25
24.09.2018 07:00:00 18,7 12,2 0 0 N 1019,7 -
24.09.2018 06:00:00 19,3 12,6 0 0 N 1019,3 -
24.09.2018 05:00:00 19,7 12,2 0 0 N 1019,4 -
24.09.2018 04:00:00 20,2 12,9 0 0 N 1019,7 -
24.09.2018 03:00:00 21,4 12,3 4 2 SW 1019,8 -
24.09.2018 02:00:00 23,0 10,1 8 4 S 1019,9 -
24.09.2018 01:00:00 24,0 12,0 5 3 SSW 1019,8 -
24.09.2018 00:00:00 25,5 8,5 5 3 S 1019,7 -
23.09.2018 23:00:00 26,9 9,3 11 6 W 1019,3 -
23.09.2018 22:00:00 29,0 8,6 9 5 W 1018,6 -
23.09.2018 21:00:00 30,5 11,0 0 0 N 1017,5 -
23.09.2018 20:00:00 34,9 10,0 0 0 N 1017,1 50
23.09.2018 19:00:00 37,6 7,5 4 2 E 1017,0 -
23.09.2018 18:00:00 37,5 8,3 9 5 ENE 1017,2 -
23.09.2018 17:00:00 37,5 8,3 9 5 E 1017,7 40
23.09.2018 16:00:00 37,2 9,7 13 7 ENE 1018,3 -
23.09.2018 15:00:00 36,8 10,2 8 4 ENE 1019,2 -
23.09.2018 14:00:00 34,7 10,5 11 6 E 1020,2 40
23.09.2018 13:00:00 32,6 10,0 9 5 E 1021,1 -
23.09.2018 12:00:00 30,3 10,8 13 7 E 1021,8 -
23.09.2018 11:00:00 27,4 12,2 13 7 E 1022,1 40
23.09.2018 10:00:00 24,2 12,5 9 5 E 1022,1 -
23.09.2018 09:00:00 20,8 13,3 4 2 ENE 1021,6 -
23.09.2018 08:00:00 18,6 13,7 4 2 NE 1021,3 40
23.09.2018 07:00:00 19,3 13,5 0 0 N 1020,8 -
23.09.2018 06:00:00 20,0 13,0 4 2 NE 1020,9 -
23.09.2018 05:00:00 20,2 13,4 4 2 SW 1020,8 -
23.09.2018 04:00:00 20,8 12,2 8 4 SW 1021,0 -
23.09.2018 03:00:00 22,2 12,4 0 0 N 1021,3 -
23.09.2018 02:00:00 22,6 12,2 5 3 SW 1021,2 -
23.09.2018 01:00:00 24,0 11,7 4 2 SSW 1021,2 -
23.09.2018 00:00:00 24,5 11,8 4 2 SW 1021,0 -
22.09.2018 23:00:00 26,1 11,4 11 6 W 1020,5 -
22.09.2018 22:00:00 29,7 9,8 13 7 W 1019,9 -
22.09.2018 21:00:00 31,4 10,7 15 8 SSW 1018,5 -
22.09.2018 20:00:00 34,9 8,6 8 4 ENE 1017,9 40
22.09.2018 19:00:00 37,1 8,0 8 4 ENE 1017,5 -
22.09.2018 18:00:00 37,2 8,9 11 6 ENE 1017,7 -
22.09.2018 17:00:00 38,0 8,0 9 5 ENE 1018,1 -
22.09.2018 16:00:00 37,0 9,6 9 5 NE 1018,5 -
22.09.2018 15:00:00 36,4 10,6 8 4 E 1019,3 -
22.09.2018 14:00:00 35,4 9,7 5 3 ESE 1020,2 40
22.09.2018 13:00:00 32,8 12,4 13 7 E 1020,7 -
22.09.2018 12:00:00 30,4 12,8 15 8 E 1021,2 -
22.09.2018 11:00:00 27,5 13,8 16 9 E 1021,3 -
22.09.2018 10:00:00 24,3 14,1 13 7 E 1021,0 -
22.09.2018 09:00:00 20,9 15,7 8 4 E 1020,8 -
22.09.2018 08:00:00 19,3 15,6 8 4 ENE 1020,2 20
22.09.2018 07:00:00 19,2 15,5 0 0 N 1019,7 -
22.09.2018 06:00:00 19,8 15,9 0 0 N 1019,3 -
22.09.2018 05:00:00 20,4 15,8 0 0 N 1019,0 -
22.09.2018 04:00:00 21,2 15,9 0 0 N 1019,0 -
22.09.2018 03:00:00 22,3 15,6 0 0 N 1019,0 -
22.09.2018 02:00:00 23,7 16,0 5 3 S 1019,0 -
22.09.2018 01:00:00 23,9 15,2 9 5 NW 1018,8 -
22.09.2018 00:00:00 25,3 15,9 8 4 SSE 1018,2 -
21.09.2018 23:00:00 26,0 16,3 4 2 SW 1017,6 -
21.09.2018 22:00:00 27,4 16,1 4 2 SW 1017,1 -
21.09.2018 21:00:00 29,3 14,7 0 0 N 1016,2 -
21.09.2018 20:00:00 32,5 14,1 8 4 W 1015,7 30
21.09.2018 19:00:00 35,2 13,4 8 4 WSW 1015,3 -
21.09.2018 18:00:00 36,1 12,3 2 1 SSW 1015,3 -
21.09.2018 17:00:00 35,8 12,1 8 4 ESE 1015,7 30
21.09.2018 16:00:00 35,1 13,9 8 4 E 1016,1 -
21.09.2018 15:00:00 34,9 14,8 4 2 S 1016,9 -
21.09.2018 14:00:00 32,9 15,0 4 2 ESE 1017,8 -
21.09.2018 13:00:00 30,7 16,3 8 4 ENE 1018,8 -
21.09.2018 12:00:00 29,0 17,2 4 2 E 1019,0 -
21.09.2018 11:00:00 26,1 17,5 8 4 ENE 1018,9 20
21.09.2018 10:00:00 24,5 17,7 9 5 ESE 1018,6 -
21.09.2018 09:00:00 21,9 18,5 0 0 N 1018,7 -
21.09.2018 08:00:00 20,3 17,7 0 0 N 1018,3 20
21.09.2018 07:00:00 20,6 17,4 0 0 N 1017,6 -
21.09.2018 06:00:00 21,3 17,9 4 2 SW 1017,4 -
21.09.2018 05:00:00 22,3 17,7 5 3 W 1017,6 -
21.09.2018 04:00:00 23,1 17,8 9 5 W 1017,6 -
21.09.2018 03:00:00 24,1 17,7 8 4 W 1017,5 -
21.09.2018 02:00:00 24,9 17,5 11 6 WSW 1017,3 -
21.09.2018 01:00:00 25,5 16,9 9 5 WSW 1017,4 -
21.09.2018 00:00:00 26,5 15,9 8 4 S 1017,1 -
20.09.2018 23:00:00 27,8 15,5 4 2 W 1016,8 -
20.09.2018 22:00:00 28,6 14,8 5 3 W 1016,1 -
20.09.2018 21:00:00 29,7 15,5 2 1 W 1015,5 -
20.09.2018 20:00:00 32,1 13,8 2 1 WSW 1015,1 30
20.09.2018 19:00:00 34,6 12,9 5 3 WSW 1014,9 -
20.09.2018 18:00:00 34,8 12,5 8 4 SSW 1015,2 -
20.09.2018 17:00:00 34,9 12,0 11 6 SSW 1015,9 30

tt = temperature
td = dewpoint
ff = wind speed
dd = wind direction
ppp = reduced air pressure
vv = visibility

Next stations